This demonstration page uses our WeatherBlox Daily Observations layout. Learn more.

Left ArrowRight Arrow

Hourly Observations for July 6, 2022

Temp ( °F °C ) Dew Point ( °F °C ) Humidity (%) Winds ( mph kmh ) Pressure ( in mb ) Visibility ( mi km ) Precip ( " mm )
12:53 am 00:53 Mostly Clear 90 32.2 64 17.8 42 42 S 10 17 29.87 1012 10 16 0.00 0.00
1:53 am 01:53 Mostly Clear 89 31.7 64 17.8 43 43 SSE 13 20 29.86 1011 10 16 0.00 0.00
2:53 am 02:53 Mostly Clear 86 30 65 18.3 49 49 SSE 12 19 29.87 1012 10 16 0.00 0.00
3:53 am 03:53 Mostly Clear 85 29.4 67 19.4 55 55 S 10 17 29.88 1012 10 16 0.00 0.00
4:53 am 04:53 Partly Cloudy 84 28.9 68 20 59 59 S 12 19 29.89 1012 10 16 0.00 0.00
5:53 am 05:53 Mostly Clear 83 28.3 68 20 61 61 S 10 17 29.90 1013 10 16 0.00 0.00
6:53 am 06:53 Mostly Sunny 82 27.8 68 20 63 63 S 13 20 29.92 1013 10 16 0.00 0.00
7:53 am 07:53 Mostly Sunny 82 27.8 69 20.6 65 65 S 8 13 29.94 1014 10 16 0.00 0.00
8:53 am 08:53 Mostly Sunny 85 29.4 67 19.4 55 55 SSW 12 19 29.96 1014 10 16 0.00 0.00
9:53 am 09:53 Mostly Sunny 88 31.1 67 19.4 50 50 SW 9 15 29.96 1015 10 16 0.00 0.00
10:53 am 10:53 Mostly Sunny 91 32.8 66 18.9 44 44 WSW 10 17 29.95 1014 10 16 0.00 0.00
11:53 am 11:53 Partly Cloudy 94 34.4 66 18.9 40 40 SW 12 19 29.94 1014 10 16 0.00 0.00
12:53 pm 12:53 Sunny 97 36.1 66 18.9 36 36 S 9 15 29.92 1013 10 16 0.00 0.00
1:53 pm 13:53 Partly Cloudy 98 36.7 64 17.8 33 33 SSE 8 13 29.89 1012 10 16 0.00 0.00
2:53 pm 14:53 Partly Cloudy 99 37.2 61 16.1 29 29 VRB 5 7 29.87 1012 10 16 0.00 0.00
3:53 pm 15:53 Mostly Cloudy 101 38.3 61 16.1 27 27 VRB 7 11 29.86 1011 10 16 0.00 0.00
4:25 pm 16:25 Partly Cloudy 100 37.8 61 16.1 28 28 S 12 19 29.83 1010 10 16 0.00 0.00
4:53 pm 16:53 Partly Cloudy 102 38.9 61 16.1 26 26 S 16 26 29.84 1011 10 16 0.00 0.00
5:53 pm 17:53 Partly Cloudy 101 38.3 62 16.7 28 28 SSE 14 22 29.83 1010 10 16 0.00 0.00
6:53 pm 18:53 Mostly Sunny 100 37.8 62 16.7 29 29 SSE 12 19 29.82 1010 10 16 0.00 0.00
7:53 pm 19:53 Mostly Sunny 99 37.2 61 16.1 29 29 SSE 13 20 29.83 1010 10 16 0.00 0.00
8:53 pm 20:53 Mostly Clear 97 36.1 64 17.8 34 34 SE 13 20 29.84 1011 10 16 0.00 0.00
9:53 pm 21:53 Clear 95 35 64 17.8 36 36 SE 9 15 29.86 1011 10 16 0.00 0.00
10:53 pm 22:53 Mostly Clear 94 34.4 64 17.8 37 37 SSE 9 15 29.88 1012 10 16 0.00 0.00
11:53 pm 23:53 Mostly Clear 91 32.8 66 18.9 44 44 SSE 9 15 29.89 1012 10 16 0.00 0.00

Powered by AerisWeather